Location: Caltech
(34.1382°N, 118.1253°W)
Time: 17:33:50
(UTC-07:00)

JAS-1B - Visible Passes

Search period start: 27 March 2017 00:00
Search period end: 06 April 2017 00:00
Orbit: 912 x 1744 km, 99.0° (Epoch: 26 March)

Date Brightness Start Highest point End Pass type
(mag) Time Alt. Az. Time Alt. Az. Time Alt. Az.
27 Mar 9.2 02:35:24 28° ESE 02:39:27 39° ENE 02:48:06 10° N visible
27 Mar 8.2 04:27:39 49° SW 04:29:25 54° W 04:38:59 10° NNW visible
28 Mar 8.8 02:54:36 36° ESE 02:58:17 50° ENE 03:07:29 10° N visible
28 Mar 8.5 04:46:51 38° WSW 04:48:38 41° W 04:57:41 10° NNW visible
29 Mar 10.3 01:24:12 10° E 01:28:30 14° NE 01:32:43 10° NNE visible
29 Mar 8.4 03:13:48 44° SE 03:17:12 64° ENE 03:26:44 10° N visible
29 Mar 8.7 05:06:03 29° WSW 05:07:53 31° W 05:16:11 10° NW visible
30 Mar 10.0 01:40:56 10° E 01:47:05 19° ENE 01:53:05 10° NNE visible
30 Mar 8.1 03:33:01 51° SSE 03:36:11 81° ENE 03:45:53 10° N visible
30 Mar 9.0 05:25:16 21° WSW 05:27:12 22° W 05:34:22 10° NW visible
31 Mar 9.7 02:00:00 15° ESE 02:05:45 25° ENE 02:12:56 10° NNE visible
31 Mar 8.0 03:52:15 52° S 03:55:13 80° WSW 04:04:56 10° NNW visible
31 Mar 9.3 05:44:30 15° WSW 05:46:36 16° W 05:51:55 10° NW visible
01 Apr 9.4 02:19:14 20° ESE 02:24:30 33° ENE 02:32:33 10° N visible
01 Apr 8.1 04:11:29 48° SSW 04:14:19 63° W 04:23:52 10° NNW visible
02 Apr 9.0 02:38:28 27° ESE 02:43:19 43° ENE 02:52:00 10° N visible
02 Apr 8.3 04:30:43 40° SW 04:33:28 48° W 04:42:40 10° NNW visible
03 Apr 10.4 01:11:35 10° ENE 01:13:36 11° NE 01:15:36 10° NE visible
03 Apr 8.6 02:57:43 34° SE 03:02:12 55° ENE 03:11:19 10° N visible
03 Apr 8.6 04:49:58 32° SW 04:52:40 36° W 05:01:16 10° NNW visible
04 Apr 10.2 01:27:12 10° E 01:32:10 15° ENE 01:36:57 10° NNE visible
04 Apr 8.3 03:16:59 40° SE 03:21:10 71° ENE 03:30:31 10° N visible
04 Apr 8.9 05:09:14 24° WSW 05:11:56 27° W 05:19:38 10° NW visible
05 Apr 9.9 01:44:13 10° ESE 01:50:48 21° ENE 01:57:05 10° NNE visible
05 Apr 8.0 03:36:15 44° SSE 03:40:10 89° ENE 03:49:37 10° NNW visible
05 Apr 9.2 05:28:30 17° WSW 05:31:14 19° W 05:37:35 10° NW visible
